Hourly Data Report for June 12, 2021

WESTERN HEAD
NOVA SCOTIA
Current Station Operator: ECCC - MSC

43°59'24.070" N
64°39'51.008" W
10.10 m
8206240
71411
WWE

Download Data

Hourly Data (June 2021)
Hourly Data Report for June 12, 2021
TIME
LST
Temp Definition
°C
Dew Point Definition
°C
Rel Hum Definition
%
Precip. Amount Definition
mm

Wind Dir Definition
10's deg

Wind Spd Definition
km/h
Visibility Definition
km
Stn Press Definition
kPa
Hmdx Definition


Wind Chill Definition


Weather Definition


00:00 8.1 8.1 100 0.0 22 11   101.49     LegendNANA
01:00 5.6 5.6 100 0.0 22 8   101.43     LegendNANA
02:00 6.6 6.6 100 0.0 27 7   101.40     LegendNANA
03:00 7.0 LegendMM LegendMM 0.0 25 6   101.33     LegendNANA
04:00 6.1 LegendMM LegendMM 0.0 5 6   101.30     LegendNANA
05:00 6.5 LegendMM LegendMM 0.0 2 6   101.26     LegendNANA
06:00 8.8 LegendMM LegendMM 0.0 7 8   101.21     LegendNANA
07:00 9.0 LegendMM LegendMM 0.0 2 6   101.16     LegendNANA
08:00 11.1 LegendMM LegendMM 0.0 2 5   101.21     LegendNANA
09:00 13.6 10.0 79 0.0 7 4   101.19     LegendNANA
10:00 12.4 10.2 86 0.0 14 8   101.14     LegendNANA
11:00 13.0 10.6 85 0.0 11 7   101.09     LegendNANA
12:00 12.5 10.1 85 0.0 14 9   101.04     LegendNANA
13:00 13.4 10.6 83 0.0 15 10   100.99     LegendNANA
14:00 13.6 10.8 83 0.0 16 10   100.91     LegendNANA
15:00 13.0 10.4 85 0.0 15 9   100.87     LegendNANA
16:00 13.3 10.7 84 0.0 18 11   100.84     LegendNANA
17:00 12.8 10.5 86 0.0 19 11   100.80     LegendNANA
18:00 12.1 10.2 88 0.0 19 12   100.81     LegendNANA
19:00 10.6 9.4 92 0.0 17 13   100.82     LegendNANA
20:00 9.4 8.6 95 0.0 17 12   100.83     LegendNANA
21:00 9.2 8.4 95 0.0 17 12   100.88     LegendNANA
22:00 9.2 9.0 98 0.0 20 14   100.86     LegendNANA
23:00 8.6 8.7 100 0.0 23 13   100.87     LegendNANA

Notes on Data Quality.

Legend

  • E = Estimated
  • M = Missing
  • NA = Not Available*
  • [empty] = Indicates an unobserved value
Date modified: